Location: La Chapelle
(48.3135°N, 1.3085°W)
Time: 08:17:51
(UTC+00:00)

MOS 1 Rocket - Pass Details

Date: 03 March 2021
Orbit: 615 x 829 km, 97.4° (Epoch: 12 April)

Event Time Altitude Azimuth Distance (km) Brightness Sun altitude
Rises 18:31:52 0° 10° (N) 3,168 6.6 -7.3°
Reaches altitude 10° 18:34:07 10° 7° (N) 2,273 5.9 -7.7°
Maximum altitude 18:39:05 64° 287° (WNW) 860 4.1 -8.5°
Drops below altitude 10° 18:44:18 10° 207° (SSW) 2,377 6.4 -9.4°
Sets 18:46:41 0° 204° (SSW) 3,323 7.1 -9.8°
